Weather in Bor

Russia / Nizhny Novgorod Oblast'     56°21′23″N   44°03′52″E
temp.,
°C
wind,
m/s
gust,
m/s
humid.,
%
clouds,
%
prec.,
mm/h
press.,
hPa
HPBL,
m
12 may, wed
wed1200:00+14ene119410 0.5 102820
03:00+12ene11975 0.5 102712
06:00+14ne279327 0.0 1027195
09:00+19ene59705 0.0 1026571
12:00+23e694935 0.1 10251521
15:00+24ese594750 0.2 10242680
18:00+18sse3106585 0.3 1025550
21:00+16ese31072100 0.3 1025418
13 may, thu
thu1300:00+15se387797 0.0 1025287
03:00+14ese268099 0.0 1025133
06:00+15e3875100 0.0 1024283
09:00+19ese5106188 0.0 1023638
12:00+22ese694879 0.0 10221266
15:00+16se61381100 0.8 1021547
18:00+16ese2128897 0.9 1020469
21:00+15se51491100 2.4 1019561
14 may, fri
fri1400:00+14se3109571 3.5 1019291
03:00+13ssw23971 3.6 102058
06:00+14ssw12931 0.0 102088
09:00+18sse1276100 0.0 1020469
12:00+22s2360100 0.0 10201131
15:00+23s345424 0.0 10191506
18:00+22se246288 0.0 1018484
21:00+18ese258122 0.0 101798
15 may, sat
sat1500:00+16se2887100 0.5 1016161
03:00+16s1191100 1.1 101711
06:00+16se3789100 0.0 1016176
09:00+21sse5967100 0.0 1015448
12:00+25s6114795 0.0 1014866
15:00+25s71247100 0.0 10141149
18:00+23s512555 0.0 1013943
21:00+19s51471100 0.0 1013512
16 may, sun
sun1600:00+17s31178100 0.0 1013293
03:00+16s38884 0.1 1012184
06:00+17ssw36854 0.0 1013204
09:00+21sw4665100 0.0 1013839
12:00+23sw57531 0.1 10141626
15:00+24wsw58461 0.3 10141957
18:00+22wsw37550 0.0 10131010
21:00+18sw26693 0.0 1015167